Flag for Japan Weather past 2 weeks in Okayama, Japan

Now
72 °F

Light rain. Fog.


Feels Like: 67 °F
Forecast: 71 / 77 °F
Wind: 5 mph from East

Location: Okayama Airport

Current Time: Jul 7, 2015 at 2:34:19 PM

Latest Report: Jul 7, 2015 at 2:00 PM


Visibility: 3 mi

Pressure: 29.92 "Hg

Humidity: 94%

Dew point: 70 °F

Location of OkayamaLocation

Historic Weather in Okayama — Graph

°F

Okayama temperature yesterday

Maximum temperature yesterday: 73 °F (at 2:00 PM)
Minimum temperature yesterday: 66 °F (at 9:00 PM)
Average temperature yesterday: 70 °F

Past Weeks' High & Low Weather Summary

 TemperatureHumidityPressure
High82 °F (Jun 25, 12:00 PM)100% (Jun 26, 11:00 AM)29.92 "Hg (Jun 26, 11:00 AM)
Low64 °F (Jun 28, 8:00 PM)51% (Jun 29, 4:00 PM)29.27 "Hg (Jul 1, 7:00 AM)
Average72 °F78%29.72 "Hg
* Reported Jun 22 1:00 PM — Jul 7 1:00 PM, Okayama, Weather by CustomWeather, © 2015

Note: Actual official high and low records may vary slightly from our data, if they occured in-between our weather recording intervals... More about our weather records

Advertising

Okayama weather history for previous 24 hours

 ConditionsComfort  
Time TempWeatherWind HumidityBarometerVisibility
1:00 PM
Tue, Jul 7
70 °FLight rain. Broken clouds.6 mph94%29.92 "Hg5 mi
12:00 PM70 °FLight rain. Fog.6 mph94%29.92 "Hg2 mi
11:00 AM70 °FRain. Fog.5 mph94%29.92 "Hg1 mi
10:00 AM68 °FLight rain. Fog.5 mph100%29.92 "Hg1 mi
9:46 AM70 °FLight rain. Fog.3 mph94%29.92 "Hg2 mi
9:00 AM70 °FLight rain. Fog.6 mph94%29.92 "Hg2 mi
8:00 AM68 °FLight rain. Fog.6 mph94%29.89 "Hg2 mi
7:46 AM68 °FLight rain. Fog.5 mph100%29.92 "Hg2 mi
7:00 AM68 °FRain. Fog.3 mph94%29.92 "Hg1 mi
9:00 PM
Mon, Jul 6
66 °FPartly cloudy.2 mph83%29.92 "HgN/A
8:00 PM68 °FPartly cloudy.2 mph83%29.89 "HgN/A
7:00 PM70 °FPartly sunny.2 mph83%29.89 "HgN/A
6:00 PM70 °FPartly sunny.3 mph83%29.86 "HgN/A
5:00 PM72 °FPartly sunny.5 mph73%29.86 "HgN/A
4:00 PM73 °FBroken clouds.6 mph74%29.86 "HgN/A
3:00 PM73 °FBroken clouds.9 mph74%29.89 "HgN/A
2:00 PM73 °FPartly sunny.6 mph78%29.86 "HgN/A
Weather by CustomWeather, © 2015

See weather overviewHow to use our weather pages